WHDW 08-02

operational
NORAD ID: 65165 Int'l Des: 2025-174 Owner: ZXW Country: CN
LEOCIRCULARPOLARONEWEB_TYPE

关于 WHDW 08-02

正在加载描述...

实时位置

正在加载3D地球...

即将过境

高度历史

Altitude vs Time

uPlot chart will show altitude changes over time

两行轨道根数

1 65165U 25174B 26063.11092199 .00000084 00000-0 16244-3 0 9993
2 65165 86.4890 287.4473 0001236 85.6348 274.4927 13.24421114 26883
Epoch: Mar 4, 2026 • Age: 17 hours

当前状态

高度 1171.9 km
速度 7.27 km/s
星下点 34.97°N, 132.94°W
发射日期 Aug 13, 2025
运行时间 0.5 years
类型 other

技术详情

分类 Payload
质量 800.00 kg
干质量 800.00 kg
总质量 800.00 kg
长度 3.00 m
直径 1.00 m
跨度 10.00 m
形状 Box + 2 Pan
制造商 CAST
平台类型 Xingwang CL
阶段状态 In Orbit
所有者/国家 ZXW/CN

大型星座

Loading constellations...